JUGNU

Satellite information

Favourite Embed

Satellite Type and Status

PAYLOADIN ORBIT

Key statistics

Satellite JUGNU at a glance.

Uptime

5177

Days in orbit

Revolutions

≈ 14.1

Per day

Orbit

LEO

Low Earth Orbit

Inclination

20.0

Latest

Satellite identification and parameters

Extended collection of information and parameters for JUGNU.

Object identification

Identified? True

Debris? False

Object name: JUGNU

International designator: 2011-058B

Object number (NORAD): 37839

Object ID (CCSDS): 37839

Country: INDIA (IND)

Current information (Y/N): Y

RCS size: MEDIUM

Orbital parameters

Period: 101.861 minutes

Inclination: 19.9625 deg

SMA: 7224.884 km

Apoapsis: 860.174 km

Periapsis: 833.324 km

RAAN: 357.545 deg

Eccentricy: 0.00185815

Argument of periapsis: 183.0407 deg

Mean anomaly: 290.1575 deg

Mean motion: 14.13697342 rev/day

Mean motion (dot): 0.00000602 rev/day2

B* drag term: 0.00017440706 1/REarth

Two-line elements (TLE)

Creation date: Dec. 13, 2025, 5:47 p.m.

Reference frame: TEME

Reference center: EARTH

Epoch: Dec. 13, 2025, 7:48 a.m. UTC

TLE line 0: 0 JUGNU

TLE line 1: 1 37839U 11058B 25347.32511823 .00000602 00000-0 17441-3 0 9999

TLE line 2: 2 37839 19.9625 357.5450 0018581 183.0407 290.1575 14.13697342732695

Live tracking on map

Real-time ground track for satellite JUGNU.

In-orbit conjunctions

There are no conjunctions computed for JUGNU, at the moment. Check back to stay up to date, as we update our databases every day.

Go to all conjunctions

Associated space launch

JUGNU was lifted into orbit during the mission ‘PSLV-CA | Megha-Tropiques’, on board a PSLV space rocket.

The launch took place on Oct. 12, 2011, 5:31 a.m. from Satish Dhawan Space Centre First Launch Pad.

For more information about the launch, click the button.

Launch to space PSLV-CA | Megha-Tropiques
PSLV-CA | Megha-Tropiques

Agency: N/A

Status: Launch Successful

Launch date: Oct. 12, 2011, 5:31 a.m. UTC

Rocket: PSLV

Launch pad: Satish Dhawan Space Centre First Launch Pad

Location: Satish Dhawan Space Centre, India

...

Latest news about this satellite

There are no fresh news available about this satellite. Check back as we update our databases every day.


Newsletter sign-up

Weekly statistics, charts and insights to help you stay on top of the space industry.